TimeCDT,TemperatureF,Dew PointF,Humidity,Sea Level PressureIn,VisibilityMPH,Wind Direction,Wind SpeedMPH,Gust SpeedMPH,PrecipitationIn,Events,Conditions,WindDirDegrees,DateUTC
12:00 AM,68.0,66.9,96,30.06,4.0,Calm,Calm,-,N/A,,Clear,0,2013-05-24 05:00:00
12:32 AM,66.9,66.0,97,30.06,2.0,East,3.5,-,N/A,,Clear,80,2013-05-24 05:32:00
12:49 AM,66.2,66.2,100,30.06,1.5,East,3.5,-,N/A,,Clear,80,2013-05-24 05:49:00
12:53 AM,66.9,66.0,97,30.05,2.0,East,3.5,-,N/A,,Clear,90,2013-05-24 05:53:00
1:06 AM,66.9,66.0,97,30.06,4.0,Calm,Calm,-,N/A,,Clear,0,2013-05-24 06:06:00
1:53 AM,66.0,64.9,96,30.06,8.0,ENE,3.5,-,N/A,,Clear,60,2013-05-24 06:53:00
2:53 AM,64.0,63.0,96,30.05,7.0,East,3.5,-,N/A,,Clear,80,2013-05-24 07:53:00
3:53 AM,66.9,63.0,87,30.07,10.0,ENE,3.5,-,N/A,,Mostly Cloudy,70,2013-05-24 08:53:00
4:53 AM,69.1,63.0,81,30.09,10.0,East,8.1,-,N/A,,Clear,80,2013-05-24 09:53:00
5:53 AM,68.0,61.0,78,30.13,10.0,ENE,10.4,-,N/A,,Scattered Clouds,70,2013-05-24 10:53:00
6:53 AM,66.0,60.1,81,30.15,10.0,ENE,10.4,-,N/A,,Clear,70,2013-05-24 11:53:00
7:53 AM,68.0,59.0,73,30.17,10.0,East,10.4,-,N/A,,Clear,90,2013-05-24 12:53:00
8:53 AM,69.1,57.9,68,30.19,10.0,East,12.7,21.9,N/A,,Clear,80,2013-05-24 13:53:00
9:53 AM,72.0,59.0,64,30.21,10.0,East,11.5,-,N/A,,Clear,100,2013-05-24 14:53:00
10:53 AM,73.9,60.1,62,30.20,10.0,East,13.8,21.9,N/A,,Clear,80,2013-05-24 15:53:00
11:53 AM,75.9,60.1,58,30.20,10.0,East,15.0,21.9,N/A,,Clear,90,2013-05-24 16:53:00
12:53 PM,77.0,60.1,56,30.20,10.0,ESE,10.4,-,N/A,,Clear,120,2013-05-24 17:53:00
1:53 PM,79.0,62.1,56,30.18,10.0,ESE,9.2,18.4,N/A,,Clear,110,2013-05-24 18:53:00
2:53 PM,79.0,63.0,58,30.17,10.0,ESE,11.5,20.7,N/A,,Clear,120,2013-05-24 19:53:00
3:53 PM,80.1,64.0,58,30.14,10.0,ESE,12.7,-,N/A,,Clear,120,2013-05-24 20:53:00
4:53 PM,79.0,64.0,60,30.13,10.0,SE,12.7,-,N/A,,Clear,130,2013-05-24 21:53:00
5:53 PM,78.1,64.0,62,30.13,10.0,SE,6.9,-,N/A,,Clear,130,2013-05-24 22:53:00
6:53 PM,75.9,64.0,67,30.12,10.0,East,8.1,-,N/A,,Clear,100,2013-05-24 23:53:00
7:53 PM,73.9,63.0,68,30.12,10.0,East,6.9,-,N/A,,Clear,100,2013-05-25 00:53:00
8:53 PM,72.0,62.1,71,30.13,10.0,East,6.9,-,N/A,,Clear,100,2013-05-25 01:53:00
9:53 PM,70.0,62.1,76,30.16,10.0,East,5.8,-,N/A,,Clear,90,2013-05-25 02:53:00
10:53 PM,69.1,60.1,73,30.18,10.0,East,5.8,-,N/A,,Clear,90,2013-05-25 03:53:00
11:53 PM,66.9,59.0,76,30.18,10.0,ENE,4.6,-,N/A,,Clear,70,2013-05-25 04:53:00